Flag for Germany Weather past 2 weeks in Zittau, Saxony, Germany

Now
72 °F

Scattered clouds.


Feels Like: 77 °F
Forecast: 59 / 82 °F
Wind: 3 mph from Southeast

Location: Liberec

Current Time: Aug 1, 2015 at 12:02:46 PM

Latest Report: Aug 1, 2015 at 11:00 AM


Visibility: 25 mi

Pressure: 30.01 "Hg

Humidity: 34%

Dew point: 42 °F

Location of ZittauLocation

Historic Weather in Zittau — Graph

°F

Zittau temperature yesterday

Maximum temperature yesterday: 68 °F (at 6:00 PM)
Minimum temperature yesterday: 41 °F (at 5:00 AM)
Average temperature yesterday: 55 °F

Past Weeks' High & Low Weather Summary

 TemperatureHumidityPressure
High92 °F (Jul 22, 4:00 PM)96% (Jul 19, 6:00 AM)30.12 "Hg (Jul 19, 6:00 AM)
Low41 °F (Jul 31, 5:00 AM)27% (Jul 22, 3:00 PM)29.60 "Hg (Jul 27, 4:00 PM)
Average67 °F60%29.88 "Hg
* Reported Jul 17 10:00 AM — Aug 1 10:00 AM, Zittau, Weather by CustomWeather, © 2015

Note: Actual official high and low records may vary slightly from our data, if they occured in-between our weather recording intervals... More about our weather records

Advertising

Zittau weather history for previous 24 hours

 ConditionsComfort  
Time TempWeatherWind HumidityBarometerVisibility
10:00 AM
Sat, Aug 1
69 °FPartly sunny.5 mph37%30.02 "Hg25 mi
9:00 AM67 °FPartly sunny.2 mph43%30.01 "Hg25 mi
8:00 AM62 °FScattered clouds.2 mph57%30.03 "Hg25 mi
7:00 AM50 °FCool.1 mph86%30.08 "Hg12 mi
6:00 AM46 °FCool.1 mph91%30.09 "Hg12 mi
5:00 AM44 °FQuite cool.1 mph92%30.10 "Hg12 mi
4:00 AM44 °FQuite cool.1 mph90%30.11 "Hg12 mi
3:00 AM44 °FQuite cool.1 mph89%30.11 "Hg11 mi
2:00 AM45 °FQuite cool.1 mph90%30.11 "Hg12 mi
1:00 AM44 °FQuite cool.1 mph86%30.12 "Hg12 mi
12:00 AM46 °FCool.1 mph83%30.11 "Hg12 mi
11:00 PM
Fri, Jul 31
48 °FCool.1 mph77%30.11 "Hg12 mi
10:00 PM52 °FPassing clouds.1 mph70%30.09 "Hg7 mi
9:00 PM54 °FPassing clouds.1 mph61%30.09 "Hg22 mi
8:00 PM64 °FPassing clouds.1 mph43%30.06 "Hg25 mi
7:00 PM67 °FMild.1 mph39%30.04 "Hg12 mi
6:00 PM68 °FMild.2 mph37%30.04 "Hg12 mi
5:00 PM65 °FPartly sunny.2 mph41%30.06 "Hg25 mi
4:00 PM66 °FPartly sunny.2 mph40%30.07 "Hg25 mi
3:00 PM65 °FPartly sunny.3 mph42%30.08 "Hg25 mi
2:00 PM65 °FPartly sunny.3 mph42%30.08 "Hg25 mi
1:00 PM62 °FPartly sunny.3 mph44%30.09 "Hg25 mi
12:00 PM63 °FPartly sunny.3 mph46%30.09 "Hg25 mi
Weather by CustomWeather, © 2015

See weather overviewHow to use our weather pages